STARLINK-36150 (67031 NORAD) Tracking and Keplerian Element Data

This shows tracking and keplerian element data for the satellite.

Feedback or suggestion? Click here.




ElementValue
Catalog67031
NameSTARLINK-36150
Epoch Orbit151
Epoch Day354.25003472
Epoch Year2025
RAAN136.2926
Inclination43
Eccentricity0.0001682
Argument of Perigee265.9304
Mean Anonmoly320.6049
Mean Motion15.88555762
Decay Rate-0.01319558
L11 67031U 25294B 25354.25003472 -.01319558 00000+0 -51774-2 0 9990
L22 67031 43.0000 136.2926 0001682 265.9304 320.6049 15.88555762 1514



Live tracking and technical data element details for STARLINK-36150 (NORAD 67031). STARLINK-36150 can be tracked NOW for your location showing map with azimuth and elevation plus other details from your city location.







IsCatalogInMostPopularTable: catalog: 67031, numindb: 85
Update: records affected: 1



GetName: 67031 STARLINK-36150

Hit Count: updated at: Thu, 21 May 2026 11:27:17 GMT